{"data":{"norad_id":57451,"intl_designator":"2023-105X","name":"STARLINK-30216","alt_names":[],"object_type":"PAYLOAD","status":"ACTIVE","operator":null,"country":"US","launch_date":"2023-07-24","launch_site_code":"AFETR","launch_vehicle":null,"mission":null,"orbit_class":"UNKNOWN","rcs_meters":null,"size_class":null,"mass_kg":null,"dimensions":null,"purposes":["comms"],"wikipedia_slug":null,"has_3d_model":false,"image_url":null,"decayed_at":null,"tle_current":{"epoch":"2026-09-20T23:27:33.511680Z","epoch_age_seconds":86368,"freshness":"FRESH","line1":"1 57451U 23105X   26263.97747120 -.00000301  00000+0 -14079-5 0  9990","line2":"2 57451  43.0029 236.5484 0000917 272.2027  87.8720 15.27576323175290","mean_motion":15.27576323,"eccentricity":9.17e-5,"inclination_deg":43.0029,"raan_deg":236.5484,"arg_perigee_deg":272.2027,"mean_anomaly_deg":87.872,"bstar":-1.4079e-6,"rev_number":17529,"period_min":94.266975621355,"perigee_km":482.43093454788,"apogee_km":483.68927809718,"semimajor_km":6861.1971063225,"source":"CELESTRAK","updated_at":"2026-09-21T09:00:33.628617Z"}}}